User: anonymous   Login
Location: Edmonton
(53.5500°N, 113.5000°W)
Time: 19:47:17
(UTC-06:00)
Language:

CZ-4C R/B - Orbit

View from above orbital plane
View from above orbital plane
View from above satellite
View from above satellite

Ground track
Ground track

The orbit data is extracted from the following two-line orbital elements,

1 36416U 10009D   18172.45828609 -.00000127 +00000-0 -17333-4 0  9994
2 36416 063.4341 353.5420 0423065 355.6218 004.1164 13.69533432414784
Epoch (UTC): 21 June 2018 10:59:55
Eccentricity: 0.0423065
inclination: 63.4341°
perigee height: 689 km
apogee height: 1313 km
right ascension of ascending node: 353.5420°
argument of perigee: 355.6218°
revolutions per day: 13.69533432
mean anomaly at epoch: 4.1164°
orbit number at epoch: 41478

The dashed part of the orbit path shows where the satellite is in the earth's shadow,  

DLR